sat.trackr.live / text

‹ back to catalog

STARLINK-3294

NORAD 50829 · 2022-001AC

PAYLOAD ACTIVE UNKNOWN

§ Identity

Operator
Country
US
Launch date
2022-01-06
Launch site
AFETR
Launch vehicle
Mass (kg)
RCS (m²)

Purposes: comms

External: N2YO · Heavens-Above · Gunter

§ Orbital elements

Epoch: 2026-09-20T02:59:07.080000Z

Period
93.90 min
Inclination
53.1603°
Eccentricity
0.0001095
Mean motion
15.33545573 rev/d
Perigee alt
464.5 km
Apogee alt
466.0 km
Semi-major
6,843.4 km
B*
4.2080e-5
RAAN
3.8135°
Arg perigee
80.6592°
Mean anomaly
279.4533°
Rev number
25,992

§ Raw data

STARLINK-32941 50829U 22001AC  26263.12438750  .00001011  00000+0  42080-4 0  99982 50829  53.1603   3.8135 0001095  80.6592 279.4533 15.33545573259920

JSON: /api/v1/satellites/50829 · /tle

For live sub-satellite position, see the globe view (requires WebGL).

§ Visibility from observer

Set your observer location to see the next 7 days of passes ≥ 10°. The values pass through the URL so the page stays shareable.

No JS? Fill the form by hand. The geolocation button needs JavaScript.